Harlan, KY

7:22 AM EST on November 15, 2019 (GMT -0500)
Harlan

Weather History for KI35 - September, 2019

Change the Weather History Date:

Thursday, September 19, 2019

  Actual Average (KLOZ) Record (KLOZ)
Temperature  
Mean Temperature 71 °F -  
Max Temperature 77 °F 77 °F 92 °F (1978)
Min Temperature 65 °F 56 °F 39 °F (1956)
Cooling Degree Days 6    
Growing Degree Days 21 (Base 50)    
Moisture  
Dew Point 59 °F    
Average Humidity 68    
Maximum Humidity 74    
Minimum Humidity 58    
Precipitation  
Precipitation 0.00 in - - ()
Sea Level Pressure  
Sea Level Pressure 30.19 in    
Wind  
Wind Speed 4 mph ()    
Max Wind Speed 13 mph    
Max Gust Speed 20 mph    
Visibility 10.0 miles    
Events      
Averages and records for this station are not official NWS values.
T = Trace of Precipitation, MM = Missing Value Source: Averaged Metar Reports

Daily Weather History Graph

Daily Weather History Graph

Search for Another Location

Airport or City:

Astronomy

Sep. 19, 2019 Rise Set
Actual Time 7:18 AM EDT 7:35 PM EDT
Civil Twilight 6:52 AM EDT 8:01 PM EDT
Nautical Twilight 6:22 AM EDT 8:31 PM EDT
Astronomical Twilight 5:51 AM EDT 9:02 PM EDT
Moon 10:51 PM EDT (9/19) 12:13 PM EDT (9/19)
Length of Visible Light 13h 08m
Length of Day
12h 16m
Waning Gibbous, 74% of the Moon is Illuminated
Sep 19
Waning Gibbous
Sep 21
Last Quarter
Sep 28
New
Oct 5
First Quarter
Oct 13
Full

Hourly Weather History & Observations

Time (EDT) Temp. Dew Point Humidity Pressure Visibility Wind Dir Wind Speed Gust Speed Precip Events Conditions
12:15 AM 70.7 °F 60.6 °F 70% 30.13 in 10.0 mi East 4.6 mph - N/A   Clear
12:35 AM 70.3 °F 60.1 °F 70% 30.14 in 10.0 mi East 8.1 mph - N/A   Clear
12:55 AM 69.8 °F 60.3 °F 72% 30.14 in 10.0 mi East 6.9 mph - N/A   Clear
1:15 AM 69.3 °F 59.9 °F 72% 30.14 in 10.0 mi SSE 5.8 mph - N/A   Clear
1:35 AM 68.9 °F 59.4 °F 72% 30.14 in 10.0 mi SSE 5.8 mph 16.1 mph N/A   Clear
1:55 AM 68.5 °F 59.2 °F 72% 30.15 in 10.0 mi East 9.2 mph - N/A   Clear
2:15 AM 68.4 °F 58.8 °F 71% 30.15 in 10.0 mi SE 6.9 mph - N/A   Clear
2:35 AM 68.2 °F 58.8 °F 72% 30.15 in 10.0 mi ESE 5.8 mph 17.3 mph N/A   Scattered Clouds
2:55 AM 68.0 °F 58.6 °F 72% 30.15 in 10.0 mi ESE 6.9 mph - N/A   Scattered Clouds
3:15 AM 68.0 °F 58.5 °F 71% 30.15 in 10.0 mi East 8.1 mph - N/A   Clear
3:35 AM 67.6 °F 58.3 °F 72% 30.15 in 10.0 mi ESE 12.7 mph 19.6 mph N/A   Clear
3:55 AM 67.3 °F 58.1 °F 72% 30.15 in 10.0 mi East 5.8 mph 18.4 mph N/A   Clear
4:15 AM 67.3 °F 58.1 °F 72% 30.15 in 10.0 mi East 4.6 mph - N/A   Clear
4:35 AM 66.9 °F 57.7 °F 72% 30.15 in 10.0 mi ESE 8.1 mph - N/A   Clear
4:55 AM 66.7 °F 57.7 °F 73% 30.15 in 10.0 mi East 5.8 mph - N/A   Scattered Clouds
5:15 AM 67.1 °F 57.7 °F 72% 30.15 in 10.0 mi East 6.9 mph 16.1 mph N/A   Scattered Clouds
5:35 AM 67.3 °F 57.6 °F 71% 30.15 in 10.0 mi East 4.6 mph 16.1 mph N/A   Mostly Cloudy
5:55 AM 67.3 °F 57.6 °F 71% 30.16 in 10.0 mi East 8.1 mph 17.3 mph N/A   Overcast
6:15 AM 67.5 °F 57.4 °F 70% 30.16 in 10.0 mi SE 5.8 mph - N/A   Overcast
6:35 AM 67.1 °F 57.2 °F 70% 30.17 in 10.0 mi SE 3.5 mph - N/A   Mostly Cloudy
6:55 AM 67.5 °F 57.2 °F 70% 30.18 in 10.0 mi WSW 3.5 mph - N/A   Scattered Clouds
7:15 AM 67.1 °F 57.2 °F 70% 30.18 in 10.0 mi ENE 3.5 mph - N/A   Mostly Cloudy
7:35 AM 67.1 °F 57.2 °F 70% 30.18 in 10.0 mi East 3.5 mph - N/A   Overcast
7:55 AM 67.1 °F 57.2 °F 70% 30.19 in 10.0 mi Calm Calm - N/A   Overcast
8:15 AM 67.3 °F 57.2 °F 70% 30.19 in 10.0 mi Calm Calm - N/A   Overcast
8:35 AM 67.1 °F 58.1 °F 73% 30.20 in 10.0 mi Calm Calm - N/A   Overcast
8:55 AM 67.3 °F 57.6 °F 71% 30.20 in 10.0 mi SE 3.5 mph - N/A   Overcast
9:15 AM 68.0 °F 57.7 °F 70% 30.21 in 10.0 mi Calm Calm - N/A   Overcast
9:55 AM 68.4 °F 57.9 °F 69% 30.22 in 10.0 mi Calm Calm - N/A   Overcast
10:15 AM 68.9 °F 58.3 °F 69% 30.21 in 10.0 mi Calm Calm - N/A   Overcast
10:35 AM 69.6 °F 58.5 °F 68% 30.22 in 10.0 mi ENE 3.5 mph - N/A   Overcast
10:55 AM 69.6 °F 58.6 °F 68% 30.22 in 10.0 mi Calm Calm - N/A   Overcast
11:15 AM 70.5 °F 58.5 °F 66% 30.22 in 10.0 mi Calm Calm - N/A   Scattered Clouds
11:35 AM 73.4 °F 59.7 °F 62% 30.23 in 10.0 mi SSE 4.6 mph - N/A   Mostly Cloudy
11:55 AM 72.3 °F 59.0 °F 63% 30.23 in 10.0 mi SSE 3.5 mph - N/A   Mostly Cloudy
12:15 PM 72.1 °F 58.8 °F 63% 30.23 in 10.0 mi SSE 3.5 mph - N/A   Overcast
12:35 PM 71.6 °F 59.2 °F 65% 30.23 in 10.0 mi SE 4.6 mph - N/A   Overcast
12:55 PM 73.8 °F 60.1 °F 62% 30.23 in 10.0 mi Calm Calm - N/A   Overcast
1:15 PM 72.9 °F 60.1 °F 64% 30.22 in 10.0 mi Calm Calm - N/A   Overcast
1:35 PM 74.3 °F 60.3 °F 61% 30.22 in 10.0 mi Calm Calm - N/A   Overcast
1:55 PM 73.6 °F 60.1 °F 63% 30.22 in 10.0 mi Calm Calm - N/A   Mostly Cloudy
2:15 PM 75.9 °F 61.2 °F 60% 30.21 in 10.0 mi SE 4.6 mph - N/A   Mostly Cloudy
2:35 PM 75.9 °F 60.8 °F 59% 30.20 in 10.0 mi South 4.6 mph - N/A   Overcast
2:55 PM 76.8 °F 61.0 °F 58% 30.20 in 10.0 mi SSE 3.5 mph - N/A   Overcast
3:15 PM 75.6 °F 60.6 °F 60% 30.20 in 10.0 mi SSE 5.8 mph - N/A   Overcast
3:35 PM 75.4 °F 61.2 °F 61% 30.20 in 10.0 mi Calm Calm - N/A   Overcast
3:55 PM 74.8 °F 60.8 °F 62% 30.19 in 10.0 mi SE 4.6 mph - N/A   Mostly Cloudy
4:15 PM 77.0 °F 61.3 °F 58% 30.18 in 10.0 mi SSE 3.5 mph - N/A   Mostly Cloudy
4:35 PM 75.2 °F 61.2 °F 62% 30.18 in 10.0 mi East 4.6 mph - N/A   Overcast
4:55 PM 74.7 °F 60.8 °F 62% 30.18 in 10.0 mi SE 3.5 mph - N/A   Overcast
5:15 PM 74.7 °F 60.8 °F 62% 30.19 in 10.0 mi Calm Calm - N/A   Overcast
5:35 PM 73.8 °F 60.8 °F 64% 30.19 in 10.0 mi SE 4.6 mph - N/A   Overcast
5:55 PM 73.6 °F 60.3 °F 63% 30.19 in 10.0 mi Calm Calm - N/A   Overcast
6:15 PM 74.1 °F 60.1 °F 61% 30.19 in 10.0 mi Calm Calm - N/A   Scattered Clouds
6:35 PM 72.9 °F 59.7 °F 63% 30.19 in 10.0 mi Calm Calm - N/A   Clear
6:55 PM 72.0 °F 59.2 °F 64% 30.18 in 10.0 mi East 3.5 mph - N/A   Clear
7:15 PM 70.9 °F 58.8 °F 66% 30.18 in 10.0 mi Calm Calm - N/A   Clear
7:35 PM 70.0 °F 58.1 °F 66% 30.20 in 10.0 mi Calm Calm - N/A   Clear
7:55 PM 69.4 °F 57.7 °F 66% 30.20 in 10.0 mi SSE 4.6 mph - N/A   Clear
8:15 PM 69.3 °F 57.6 °F 66% 30.20 in 10.0 mi SSE 3.5 mph - N/A   Clear
8:35 PM 68.9 °F 57.4 °F 67% 30.20 in 10.0 mi SE 3.5 mph - N/A   Clear
8:55 PM 68.2 °F 57.4 °F 68% 30.21 in 10.0 mi Calm Calm - N/A   Clear
9:15 PM 67.6 °F 57.4 °F 70% 30.22 in 10.0 mi Calm Calm - N/A   Clear
9:35 PM 67.3 °F 57.2 °F 70% 30.22 in 10.0 mi ESE 5.8 mph - N/A   Clear
9:55 PM 67.1 °F 57.2 °F 70% 30.22 in 10.0 mi Calm Calm - N/A   Clear
10:15 PM 67.1 °F 56.7 °F 69% 30.23 in 10.0 mi Calm Calm - N/A   Clear
10:35 PM 66.2 °F 56.8 °F 72% 30.23 in 10.0 mi East 4.6 mph - N/A   Clear
10:55 PM 65.8 °F 56.8 °F 73% 30.24 in 10.0 mi Calm Calm - N/A   Clear
11:15 PM 65.5 °F 56.8 °F 74% 30.24 in 10.0 mi East 4.6 mph - N/A   Clear
11:35 PM 66.0 °F 56.3 °F 71% 30.23 in 10.0 mi ESE 3.5 mph - N/A   Scattered Clouds
11:55 PM 66.2 °F 56.5 °F 71% 30.24 in 10.0 mi East 5.8 mph - N/A   Mostly Cloudy